• In Belgium
  • List of Countries
  • For 7 days
  • Water Temperature
  • Satellite Maps
  • Weather Map
  • Weather Widgets
  • user-avatar
    Login

    Hourly Weather Seli

    Today, 25 September, Tuesday

    Time Temperature Precipitation Wind Pressure Humidity
    00:00 +25°C° 0 mm 5 mps 748 mmHg 72%
    01:00 +25°C° 0 mm 5 mps 748 mmHg 73%
    02:00 +25°C° 0 mm 5 mps 748 mmHg 74%
    03:00 +23°C° 0 mm 5 mps 748 mmHg 76%
    04:00 +23°C° 0 mm 4 mps 748 mmHg 78%
    05:00 +22°C° 0 mm 4 mps 748 mmHg 79%
    06:00 +23°C° 0 mm 4 mps 748 mmHg 74%
    07:00 +26°C° 0 mm 4 mps 748 mmHg 69%
    08:00 +27°C° 0 mm 3 mps 748 mmHg 62%
    09:00 +28°C° 0 mm 4 mps 748 mmHg 57%
    10:00 +29°C° 0 mm 5 mps 749 mmHg 52%
    11:00 +30°C° 0 mm 6 mps 749 mmHg 47%
    12:00 +32°C° 0 mm 7 mps 749 mmHg 46%
    13:00 +32°C° 0 mm 8 mps 749 mmHg 46%
    14:00 +32°C° 0 mm 8 mps 750 mmHg 45%
    15:00 +31°C° 0 mm 9 mps 750 mmHg 49%
    16:00 +29°C° 0 mm 9 mps 750 mmHg 53%
    17:00 +28°C° 0 mm 10 mps 750 mmHg 57%
    18:00 +27°C° 0 mm 10 mps 750 mmHg 60%
    19:00 +26°C° 0 mm 10 mps 750 mmHg 64%
    20:00 +24°C° 0 mm 10 mps 751 mmHg 67%
    21:00 +24°C° 0.1 mm 10 mps 751 mmHg 67%
    22:00 +23°C° 0.1 mm 10 mps 751 mmHg 67%
    23:00 +23°C° 0.1 mm 10 mps 751 mmHg 67%

    Tomorrow, 26 September, Wednesday

    Time Temperature Precipitation Wind Pressure Humidity
    00:00 +23°C° 0 mm 11 mps 751 mmHg 66%
    01:00 +23°C° 0 mm 11 mps 751 mmHg 66%
    02:00 +23°C° 0 mm 11 mps 751 mmHg 65%
    03:00 +22°C° 0 mm 11 mps 751 mmHg 66%
    04:00 +22°C° 0 mm 12 mps 751 mmHg 66%
    05:00 +21°C° 0 mm 12 mps 751 mmHg 67%
    06:00 +22°C° 0 mm 12 mps 751 mmHg 63%
    07:00 +22°C° 0 mm 12 mps 751 mmHg 60%
    08:00 +22°C° 0 mm 13 mps 751 mmHg 57%
    09:00 +23°C° 0 mm 13 mps 752 mmHg 53%
    10:00 +24°C° 0 mm 13 mps 752 mmHg 49%
    11:00 +24°C° 0 mm 13 mps 752 mmHg 45%
    12:00 +24°C° 0 mm 13 mps 752 mmHg 45%
    13:00 +24°C° 0 mm 13 mps 752 mmHg 45%
    14:00 +24°C° 0 mm 13 mps 752 mmHg 45%
    15:00 +24°C° 0.1 mm 13 mps 751 mmHg 48%
    16:00 +23°C° 0.1 mm 13 mps 751 mmHg 50%
    17:00 +22°C° 0.1 mm 13 mps 751 mmHg 53%
    18:00 +22°C° 0.1 mm 13 mps 751 mmHg 56%
    19:00 +20°C° 0.1 mm 13 mps 751 mmHg 58%
    20:00 +19°C° 0.1 mm 13 mps 751 mmHg 61%
    21:00 +19°C° 0.1 mm 12 mps 751 mmHg 62%
    22:00 +19°C° 0.1 mm 12 mps 751 mmHg 63%
    23:00 +19°C° 0.1 mm 12 mps 751 mmHg 63%

    Day after tomorrow, 27 September, Thursday

    Time Temperature Precipitation Wind Pressure Humidity
    00:00 +19°C° 0.2 mm 12 mps 751 mmHg 64%
    01:00 +19°C° 0.2 mm 12 mps 750 mmHg 65%
    02:00 +19°C° 0.2 mm 12 mps 750 mmHg 66%
    03:00 +19°C° 0.2 mm 12 mps 750 mmHg 66%
    04:00 +19°C° 0.2 mm 12 mps 749 mmHg 66%
    05:00 +19°C° 0.2 mm 12 mps 749 mmHg 66%
    06:00 +19°C° 0.2 mm 12 mps 749 mmHg 63%
    07:00 +21°C° 0.2 mm 12 mps 749 mmHg 61%
    08:00 +21°C° 0.2 mm 11 mps 749 mmHg 59%
    09:00 +23°C° 0.1 mm 11 mps 749 mmHg 56%
    10:00 +24°C° 0.1 mm 10 mps 749 mmHg 52%
    11:00 +26°C° 0.1 mm 10 mps 749 mmHg 48%
    12:00 +26°C° 0.1 mm 9 mps 749 mmHg 47%
    13:00 +27°C° 0.1 mm 9 mps 749 mmHg 46%
    14:00 +27°C° 0.1 mm 8 mps 749 mmHg 45%
    15:00 +26°C° 0 mm 7 mps 749 mmHg 48%
    16:00 +26°C° 0 mm 7 mps 749 mmHg 51%
    17:00 +24°C° 0 mm 7 mps 749 mmHg 54%
    18:00 +23°C° 0.1 mm 6 mps 749 mmHg 57%
    19:00 +23°C° 0.1 mm 6 mps 749 mmHg 60%
    20:00 +22°C° 0.1 mm 6 mps 749 mmHg 63%
    21:00 +22°C° 0 mm 6 mps 749 mmHg 63%
    22:00 +22°C° 0 mm 6 mps 749 mmHg 62%
    23:00 +22°C° 0 mm 6 mps 749 mmHg 62%

    28 September, Friday

    Time Temperature Precipitation Wind Pressure Humidity
    00:00 +23°C° 0.1 mm 6 mps 749 mmHg 63%
    01:00 +23°C° 0.1 mm 7 mps 749 mmHg 64%
    02:00 +23°C° 0.1 mm 7 mps 749 mmHg 65%
    03:00 +23°C° 0.3 mm 7 mps 748 mmHg 66%
    04:00 +23°C° 0.3 mm 7 mps 748 mmHg 66%
    05:00 +23°C° 0.3 mm 7 mps 748 mmHg 67%
    06:00 +23°C° 0.5 mm 7 mps 748 mmHg 66%
    07:00 +24°C° 0.5 mm 7 mps 748 mmHg 65%
    08:00 +24°C° 0.5 mm 7 mps 748 mmHg 64%
    09:00 +26°C° 1.1 mm 7 mps 749 mmHg 61%
    10:00 +27°C° 1.1 mm 7 mps 749 mmHg 58%
    11:00 +28°C° 1.1 mm 6 mps 749 mmHg 55%
    12:00 +28°C° 0.3 mm 6 mps 748 mmHg 58%
    13:00 +28°C° 0.3 mm 6 mps 748 mmHg 60%
    14:00 +28°C° 0.3 mm 6 mps 748 mmHg 62%
    15:00 +27°C° 0.2 mm 6 mps 748 mmHg 65%
    16:00 +27°C° 0.2 mm 5 mps 748 mmHg 68%
    17:00 +26°C° 0.2 mm 5 mps 747 mmHg 70%
    18:00 +26°C° 0.2 mm 4 mps 748 mmHg 74%
    19:00 +25°C° 0.2 mm 4 mps 748 mmHg 79%
    20:00 +25°C° 0.2 mm 3 mps 748 mmHg 83%
    21:00 +24°C° 0.1 mm 3 mps 748 mmHg 83%
    22:00 +24°C° 0.1 mm 3 mps 748 mmHg 83%
    23:00 +22°C° 0.1 mm 3 mps 748 mmHg 83%

    29 September, Saturday

    Time Temperature Precipitation Wind Pressure Humidity
    00:00 +22°C° 0.1 mm 3 mps 748 mmHg 80%
    01:00 +22°C° 0.1 mm 3 mps 748 mmHg 78%
    02:00 +21°C° 0.1 mm 3 mps 748 mmHg 75%
    03:00 +21°C° 0.2 mm 3 mps 748 mmHg 73%
    04:00 +21°C° 0.2 mm 3 mps 747 mmHg 71%
    05:00 +21°C° 0.2 mm 3 mps 747 mmHg 70%
    06:00 +21°C° 0 mm 3 mps 747 mmHg 70%
    07:00 +22°C° 0 mm 3 mps 748 mmHg 71%
    08:00 +24°C° 0 mm 3 mps 748 mmHg 72%
    09:00 +25°C° 0 mm 3 mps 748 mmHg 65%
    10:00 +26°C° 0 mm 3 mps 748 mmHg 58%
    11:00 +27°C° 0 mm 4 mps 747 mmHg 52%
    12:00 +27°C° 0.1 mm 4 mps 747 mmHg 52%
    13:00 +27°C° 0.1 mm 4 mps 747 mmHg 51%
    14:00 +27°C° 0.1 mm 4 mps 746 mmHg 51%
    15:00 +26°C° 0.1 mm 4 mps 746 mmHg 55%
    16:00 +26°C° 0.1 mm 5 mps 746 mmHg 59%
    17:00 +25°C° 0.1 mm 5 mps 745 mmHg 63%
    18:00 +25°C° 0.1 mm 5 mps 745 mmHg 65%
    19:00 +25°C° 0.1 mm 5 mps 745 mmHg 68%
    20:00 +23°C° 0.1 mm 6 mps 745 mmHg 71%
    21:00 +23°C° 0.4 mm 6 mps 745 mmHg 72%
    22:00 +23°C° 0.4 mm 6 mps 745 mmHg 73%
    23:00 +22°C° 0.4 mm 6 mps 745 mmHg 75%

    30 September, Sunday

    Time Temperature Precipitation Wind Pressure Humidity
    00:00 +22°C° 0.5 mm 6 mps 745 mmHg 75%
    01:00 +22°C° 0.5 mm 6 mps 745 mmHg 76%
    02:00 +22°C° 0.5 mm 6 mps 744 mmHg 77%
    03:00 +22°C° 0.5 mm 6 mps 744 mmHg 78%
    04:00 +22°C° 0.5 mm 6 mps 744 mmHg 79%
    05:00 +22°C° 0.5 mm 6 mps 744 mmHg 80%
    06:00 +22°C° 0.5 mm 6 mps 744 mmHg 77%
    07:00 +23°C° 0.5 mm 7 mps 744 mmHg 75%
    08:00 +23°C° 0.5 mm 7 mps 744 mmHg 73%
    09:00 +24°C° 0.5 mm 7 mps 744 mmHg 69%
    10:00 +24°C° 0.5 mm 7 mps 744 mmHg 65%
    11:00 +26°C° 0.5 mm 7 mps 744 mmHg 62%
    12:00 +26°C° 0.5 mm 7 mps 744 mmHg 61%
    13:00 +27°C° 0.5 mm 7 mps 744 mmHg 60%
    14:00 +27°C° 0.5 mm 7 mps 744 mmHg 60%
    15:00 +26°C° 0.5 mm 8 mps 744 mmHg 63%
    16:00 +26°C° 0.5 mm 8 mps 744 mmHg 65%
    17:00 +24°C° 0.5 mm 8 mps 744 mmHg 68%
    18:00 +24°C° 1.2 mm 8 mps 744 mmHg 70%
    19:00 +23°C° 1.2 mm 9 mps 744 mmHg 72%
    20:00 +23°C° 1.2 mm 9 mps 744 mmHg 73%
    21:00 +23°C° 1.2 mm 10 mps 744 mmHg 74%
    22:00 +23°C° 1.2 mm 10 mps 744 mmHg 74%
    23:00 +23°C° 1.2 mm 11 mps 744 mmHg 74%
    Show more